Regional Weather Roundup
Issued by NWS

Home | Current Version | Previous Version | Graphics & Text | Print | Product List | Glossary On
Versions: 1 2 3 4 5 6 7 8 9 10 11 12 13 14 15 16 17 18 19 20 21 22 23 24 25 26 27 28 29 30 31 32 33 34 35 36 37 38 39 40 41 42 43 44 45 46 47 48 49 50
000
ASUS45 KTFX 310919
RWRMT
MONTANA REGIONAL WEATHER ROUNDUP
NATIONAL WEATHER SERVICE GREAT FALLS MT
300 AM MDT MON AUG 31 2015

NOTE: "FAIR" INDICATES FEW OR NO CLOUDS BELOW 12000 FEET WITH NO
SIGNIFICANT WEATHER AND/OR OBSTRUCTIONS TO VISIBILITY.

MTZ001>007-043-311000-
WEST OF THE DIVIDE

CITY           SKY/WX    TMP DP  RH WIND       PRES   REMARKS
KALISPELL      MOSUNNY   46  42  86 S7        29.99S
MISSOULA       MOCLDY    44  41  89 CALM      30.07F
BUTTE          PTCLDY    43  37  79 CALM      30.11F
MULLAN PASS    MOCLDY    40  38  93 SW8G21    30.07S
DEER LODGE       N/A     45  37  76 CALM      30.12S
EUREKA           N/A     54  45  71 SE8       29.97S
HAMILTON         N/A     50  41  71 SW7       30.08S
LIBBY            N/A     48  48 100 W3        29.99R VSB 1/4
PLAINS           N/A     55  42  61 NE2       30.02S
RONAN            N/A     49  40  71 SE5       30.07F
THOMPSON FALLS   N/A     49  46  89 SW5       30.06S
$$

MTZ008-052>055-311000-
SOUTHWEST MONTANA

CITY           SKY/WX    TMP DP  RH WIND       PRES   REMARKS
BOZEMAN        PTCLDY    45  39  79 SE5       30.05S
DILLON         PTCLDY    49  35  58 S10       30.08R
W YELLOWSTONE  CLEAR     41  23  48 CALM      30.13R
THREE FORKS      N/A     49  47  93 CALM      30.04S
TWIN BRIDGES     N/A     53  34  48 E7        30.06S
$$

MTZ009-010-012-014-046-048-049-054-311000-
EAST SLOPES AND CENTRAL MONTANA

CITY           SKY/WX    TMP DP  RH WIND       PRES   REMARKS
CUT BANK       CLEAR     53  33  46 W20G29    29.84S
GREAT FALLS    CLEAR     53  31  42 SW14G26   29.91F
MALMSTROM AFB  CLEAR     54  32  43 SW22G29   29.91F
HELENA         PTCLDY    53  36  52 VRB3      30.02F
CONRAD           N/A     40  34  79 SW3       29.90F
$$

MTZ011-013-016-021-045-047-050-051-311000-
NORTH CENTRAL MONTANA

CITY           SKY/WX    TMP DP  RH WIND       PRES   REMARKS
HAVRE          CLEAR     53  37  54 MISG      29.84S
LEWISTOWN      CLEAR     47  40  76 SW8       29.94S
N BAR RANCH      N/A     54  37  54 W12G21    29.96R
CHINOOK          N/A     55  39  54 W10G17    29.82F
FORT BENTON      N/A     57  34  41 SW13G20   29.89S
$$

MTZ017>020-022>027-061-062-311000-
NORTHEAST MONTANA

CITY           SKY/WX    TMP DP  RH WIND       PRES   REMARKS
GLASGOW        MOCLDY    55  52  89 W6        29.78S
JORDAN           N/A     56  50  80 W7        29.86R
SIDNEY         CLOUDY    61  55  82 NW16      29.78R
WOLF POINT     LGT RAIN  60  52  74 NW14      29.77R
MALTA            N/A     53  48  83 W5        29.80S
PLENTYWOOD       N/A     61  52  72 W24G41    29.80R
POPLAR           N/A     61  52  72 NW14G23   29.76F
SCOBEY           N/A     55  47  74 N7        29.75F
$$

MTZ028>42-056>058-311000-
SOUTHCENTRAL AND SOUTHEAST MONTANA

CITY           SKY/WX    TMP DP  RH WIND       PRES   REMARKS
BAKER          MOCLDY    62  57  83 NW15G22   29.83R
BILLINGS       CLEAR     56  42  59 W7        29.97S
LIVINGSTON     CLEAR     54  37  52 W14       30.01S
MILES CITY     MOCLDY    61  48  62 N15       29.86R
EKALAKA          N/A     62  53  72 NW6       29.84R
FORSYTH          N/A     61  48  63 W7        29.89R
LAUREL           N/A     52  38  58 W3        29.97S
ROUNDUP          N/A     54  42  63 CALM      29.87R
$$

REGIONAL REPORTS...DAKOTAS

CITY           SKY/WX    TMP DP  RH WIND       PRES   REMARKS
WILLISTON      CLOUDY    63  56  78 NW14      29.73S
MINOT          CLOUDY    64  54  69 NW3       29.66F
DICKINSON      CLOUDY    63  56  78 N9        29.71F
BEACH            N/A     59  59 100 NW16      29.81R
CROSBY         PTSUNNY   64  55  72 W13       29.76R
BISMARCK       CLOUDY    70  60  70 N12       29.63R HAZE
GRAND FORKS    CLEAR     67  63  87 S13       29.64S
FARGO          CLEAR     67  60  78 S16G24    29.68F
BUFFALO SD       N/A     65  52  62 N6        29.70R
RAPID CITY     CLOUDY    72  51  47 SW6       29.78R
$$

REGIONAL REPORTS...WYOMING/IDAHO/WASHINGTON

CITY           SKY/WX    TMP DP  RH WIND       PRES   REMARKS
GILLETTE       CLOUDY    68  45  43 W9        29.87R
SHERIDAN       CLOUDY    61  44  53 NW22G32   29.97R
BUFFALO WY     CLOUDY    65  42  43 NW30G39   29.93S
CODY           CLEAR     55  43  62 NE10      30.03R
YELLOWSTONE LA   N/A     44  22  41 CALM      30.19F
IDAHO FALLS    CLEAR     51  36  56 SW12      30.07R
SALMON         PTCLDY    50  37  62 CALM      30.09R
BOISE          CLEAR     58  43  57 CALM      30.05R
SPOKANE        PTCLDY    53  43  68 S14       29.99S
$$

REGIONAL REPORTS...ALBERTA

CITY           SKY/WX    TMP DP  RH WIND       PRES   REMARKS
EDMONTON       PTCLDY    48  41  76 SW5       29.51S
CALGARY        MOCLDY    55  30  38 SW8G17    29.66S
LETHBRIDGE     CLEAR     50  36  57 S20       29.77S
MEDICINE HAT   CLEAR     52  37  58 S16       29.72S
WATERTON GATE    N/A     52  32  46 SW29G47     N/A
CARDSTON         N/A     52  32  46 SW7         N/A
MILK RIVER       N/A     50  36  57 W5          N/A
ONEFOUR          N/A     52  36  54 SW9         N/A
$$

REGIONAL REPORTS...SASKATCHEWAN

CITY           SKY/WX    TMP DP  RH WIND       PRES   REMARKS
SWIFT CURRENT  MOCLDY    57  37  47 W18G25    29.68F
REGINA         LGT RAIN  59  54  82 W20       29.72R
SASKATOON      MOCLDY    61  43  51 SW10      29.57F
CYPRESS HILLS    N/A     46  34  61 W14         N/A
VAL MARIE        N/A     52  43  71 W16         N/A
ROCKGLEN         N/A     54  52  94 SW9         N/A
ASSINIBOIA       N/A     46  45  93 S6          N/A
$$



USA.gov is the U.S. government's official web portal to all federal, state and local government web resources and services.